Dewpoint
69 73 76 75 74 75 75 75 75 76 75 75 75 74 75 75 75 75 74 73 74 74 74 74 74 74 73 74 74 75 74 74 74 74 74 74 73 74 73 73 74 72 75
70 73 76 76 75 75 75 75 75 76 75 75 75 74 74 74 74 75 74 73 74 74 74 74 74 74 74 75 74 74 74 74 73 74 75 73 74 73 73 72 74 73 74
70 72 74 76 75 75 75 75 75 75 75 75 75 74 74 74 74 75 74 72 73 74 74 74 74 73 74 73 73 73 72 74 73 73 73 71 70 73 72 73 74 73 74
69 71 73 76 76 75 75 75 75 75 75 75 75 74 73 74 74 75 71 72 74 73 74 73 73 74 73 73 72 73 73 74 73 73 72 71 67 73 73 73 73 74 74
68 70 73 76 76 75 75 75 75 74 74 75 74 74 74 74 74 72 73 74 74 74 73 73 73 72 73 74 73 73 73 73 74 68 71 72 70 71 73 73 73 73 73
65 70 75 76 75 75 75 75 75 74 75 74 74 74 75 73 73 75 74 74 74 73 74 73 73 72 70 73 73 72 72 74 72 68 71 73 70 73 73 72 72 72 73
69 73 74 77 76 75 75 75 74 74 75 74 74 75 75 74 73 75 74 74 74 74 73 73 73 73 73 72 71 71 72 73 71 71 72 72 72 72 72 72 72 72 71
70 72 73 76 76 75 75 75 74 74 75 74 75 75 75 74 73 74 74 74 73 72 73 73 73 72 72 71 71 71 71 70 71 70 71 70 71 71 70 72 71 72 72
69 70 73 73 74 75 75 75 75 75 74 74 74 75 75 75 74 74 74 74 73 73 72 73 73 72 72 72 71 70 71 71 70 70 70 71 73 72 71 72 72 71 72
70 71 72 73 73 73 73 75 75 75 74 75 75 74 75 75 74 74 75 75 73 73 72 72 72 73 73 73 72 71 71 72 71 69 68 71 72 71 70 71 71 72 71
68 69 70 71 72 72 72 73 74 74 74 75 74 75 76 73 73 73 75 75 74 73 74 73 73 73 73 73 73 73 72 70 71 69 70 70 71 69 69 70 71 70 71
64 67 68 70 71 71 71 72 74 71 72 73 73 73 73 74 73 73 74 75 74 75 74 74 74 74 73 72 71 72 70 69 70 71 71 72 72 69 69 70 70 70 70
62 66 67 69 70 70 70 72 73 71 71 73 73 72 73 73 72 73 73 73 73 74 72 73 72 72 71 71 73 72 72 71 69 71 72 73 72 71 70 71 70 70 70
64 65 67 69 69 70 70 71 71 70 69 71 73 70 71 72 71 71 72 72 72 73 73 74 73 71 73 72 73 71 71 71 72 72 72 74 73 73 72 72 71 70 71
62 65 66 68 68 69 69 69 69 70 68 70 70 70 72 71 70 70 70 71 72 73 72 73 73 73 73 72 71 72 71 72 74 72 72 74 75 73 73 73 72 71 71
62 62 67 67 68 68 67 68 69 70 69 69 69 69 70 69 70 72 71 71 72 71 73 72 72 72 72 72 72 73 72 73 71 72 73 72 75 75 74 74 74 72 71
61 64 65 66 67 69 66 69 70 68 68 67 68 68 71 72 71 71 73 71 72 73 72 72 73 74 73 73 73 72 69 69 69 69 71 73 73 76 75 75 75 74 73
61 64 66 66 66 68 66 69 70 69 67 70 70 71 71 70 73 73 73 73 73 73 73 71 71 71 72 73 68 68 68 68 69 71 72 74 73 73 75 76 76 74 73
61 62 65 66 66 68 66 68 69 69 68 70 71 72 71 72 72 73 72 73 72 72 72 73 72 73 71 71 69 67 67 67 69 71 72 72 72 74 74 75 76 75 75
62 63 64 67 66 67 70 68 68 69 70 71 72 72 72 73 74 73 74 73 72 72 73 72 72 72 72 72 71 68 67 68 68 69 70 71 69 71 73 73 74 74 75
63 66 64 67 67 68 67 67 67 69 70 69 72 73 73 74 74 75 75 73 73 73 72 72 72 71 71 73 66 65 65 66 67 68 70 69 69 70 70 74 74 73 73
62 65 65 66 67 69 67 69 68 70 70 70 69 72 73 71 72 72 74 73 72 73 73 72 71 71 73 73 69 69 65 66 69 68 70 69 68 70 70 73 74 73 73
62 65 64 67 67 69 68 69 71 69 69 70 71 72 71 71 75 73 75 75 73 73 73 72 72 71 70 71 72 69 64 64 67 69 69 69 69 68 68 72 73 73 72
64 64 65 66 71 70 71 69 69 69 68 68 67 70 73 73 73 74 74 74 73 74 74 72 73 73 72 70 72 74 70 69 65 65 68 68 67 67 66 71 72 72 72
65 66 65 65 69 68 69 72 69 71 68 71 70 71 71 73 73 72 75 75 74 73 74 73 74 73 74 73 72 71 70 70 70 68 66 66 66 67 68 68 72 72 72
64 66 66 66 68 68 68 71 72 70 69 68 68 69 71 71 72 73 75 75 75 74 75 74 74 74 74 75 74 73 71 69 69 68 67 66 64 65 67 68 72 73 73
Lifted_Index
-1 -2 -3 -3 -3 -3 -3 -3 -3 -3 -3 -3 -3 -3 -3 -3 -3 -3 -3 -3 -3 -4 -4 -4 -5 -5 -5 -5 -5 -5 -5 -5 -5 -5 -5 -5 -5 -5 -5 -5 -5 -6 -6
-2 -3 -3 -3 -3 -3 -3 -3 -3 -3 -3 -3 -3 -3 -3 -3 -3 -3 -3 -3 -3 -4 -4 -4 -4 -5 -5 -5 -5 -5 -5 -5 -5 -5 -5 -4 -4 -4 -4 -5 -5 -6 -6
-2 -3 -3 -4 -3 -3 -3 -3 -3 -3 -3 -3 -3 -3 -3 -3 -3 -3 -3 -2 -3 -3 -4 -4 -4 -4 -4 -4 -4 -4 -4 -4 -4 -4 -4 -3 -3 -4 -4 -4 -5 -5 -5
-2 -2 -3 -4 -3 -3 -3 -3 -3 -3 -3 -3 -3 -3 -3 -3 -3 -2 -2 -2 -3 -3 -3 -3 -3 -3 -3 -3 -3 -3 -4 -4 -3 -3 -3 -2 -3 -4 -4 -4 -4 -5 -5
-1 -2 -3 -4 -3 -3 -3 -3 -3 -3 -3 -3 -3 -3 -3 -2 -2 -2 -2 -2 -3 -3 -3 -3 -3 -3 -3 -3 -3 -3 -3 -3 -2 -2 -2 -2 -3 -3 -4 -4 -4 -4 -4
-1 -2 -3 -4 -3 -3 -3 -3 -3 -3 -3 -3 -3 -3 -2 -2 -2 -2 -2 -2 -3 -3 -3 -3 -3 -2 -3 -3 -3 -3 -3 -2 -1 -0 -1 -2 -2 -3 -4 -4 -3 -3 -3
-2 -3 -4 -4 -4 -3 -3 -3 -3 -3 -3 -3 -3 -3 -3 -2 -2 -2 -2 -2 -2 -2 -2 -3 -3 -3 -3 -2 -2 -2 -2 -2 -1 -0 -1 -1 -2 -2 -3 -3 -3 -3 -3
-2 -3 -4 -4 -4 -3 -3 -3 -3 -3 -3 -3 -3 -3 -3 -3 -2 -3 -3 -3 -2 -2 -2 -3 -3 -3 -3 -2 -2 -2 -2 -2 -1 -0 -0 -1 -2 -2 -2 -3 -3 -3 -3
-2 -3 -3 -4 -4 -4 -4 -4 -3 -3 -3 -3 -3 -3 -3 -3 -3 -3 -3 -3 -3 -2 -2 -2 -3 -2 -2 -2 -2 -2 -2 -2 -1 0 0 -1 -1 -2 -2 -2 -2 -2 -2
-3 -3 -3 -3 -3 -3 -4 -4 -3 -3 -3 -3 -3 -3 -3 -3 -3 -3 -3 -3 -3 -3 -2 -2 -2 -2 -2 -2 -2 -2 -2 -2 -1 -0 0 -0 -1 -1 -1 -1 -1 -2 -2
-3 -3 -3 -3 -3 -3 -3 -3 -3 -3 -3 -3 -3 -3 -3 -3 -3 -3 -3 -3 -3 -3 -3 -3 -3 -3 -3 -3 -2 -2 -2 -2 -2 -1 -1 -1 -1 -0 -0 -0 -0 -1 -1
-2 -2 -2 -3 -3 -3 -3 -3 -3 -2 -2 -3 -3 -3 -3 -3 -3 -3 -3 -3 -3 -3 -3 -3 -3 -3 -3 -2 -2 -2 -2 -2 -2 -2 -2 -1 -1 -1 -0 -0 -0 -0 -0
-2 -2 -2 -3 -3 -3 -3 -3 -3 -2 -2 -2 -3 -3 -3 -3 -3 -3 -3 -3 -3 -3 -2 -2 -3 -3 -2 -2 -2 -2 -2 -1 -2 -2 -2 -2 -2 -1 -1 -1 -1 -0 -0
-2 -2 -2 -3 -3 -3 -3 -3 -2 -2 -2 -2 -2 -2 -2 -2 -2 -2 -3 -3 -2 -2 -2 -2 -2 -2 -2 -2 -2 -2 -2 -2 -2 -2 -2 -3 -3 -2 -2 -2 -1 -1 -0
-2 -2 -2 -2 -3 -3 -3 -2 -2 -2 -2 -2 -2 -2 -2 -2 -2 -2 -2 -2 -2 -2 -2 -2 -2 -3 -3 -3 -3 -3 -2 -3 -3 -2 -3 -3 -3 -3 -3 -2 -2 -1 -1
-1 -2 -2 -2 -2 -2 -2 -2 -2 -2 -2 -2 -2 -2 -2 -2 -2 -2 -3 -3 -3 -3 -3 -3 -3 -3 -3 -3 -3 -3 -3 -3 -3 -3 -3 -3 -4 -4 -3 -3 -3 -2 -2
-1 -1 -2 -2 -2 -2 -2 -2 -2 -2 -2 -2 -2 -2 -2 -3 -2 -2 -3 -3 -3 -3 -3 -3 -3 -4 -4 -4 -3 -3 -2 -2 -2 -2 -3 -4 -4 -4 -4 -4 -3 -3 -2
-1 -1 -1 -1 -2 -2 -2 -2 -2 -2 -2 -2 -2 -2 -3 -3 -3 -3 -3 -3 -3 -3 -3 -3 -4 -4 -4 -4 -3 -2 -0 1 1 -1 -3 -4 -5 -5 -4 -4 -4 -3 -2
-0 -1 -1 -2 -2 -2 -2 -2 -2 -2 -2 -3 -3 -3 -3 -3 -4 -4 -4 -4 -3 -3 -4 -4 -4 -5 -5 -4 -4 -2 -1 0 0 -1 -3 -4 -5 -5 -5 -5 -4 -4 -3
-1 -1 -1 -2 -2 -2 -2 -1 -1 -2 -3 -3 -4 -4 -4 -4 -4 -4 -4 -4 -4 -4 -4 -5 -5 -5 -5 -5 -4 -3 -3 -2 -2 -2 -3 -4 -5 -5 -5 -5 -5 -4 -4
-1 -1 -1 -1 -2 -2 -1 -1 -1 -2 -3 -3 -4 -4 -4 -4 -5 -5 -5 -5 -5 -5 -5 -5 -5 -5 -6 -6 -5 -4 -4 -3 -3 -3 -3 -4 -4 -4 -5 -5 -5 -5 -5
-1 -1 -1 -1 -1 -1 -1 -1 -2 -2 -3 -3 -3 -4 -4 -4 -5 -5 -5 -5 -5 -5 -6 -6 -6 -6 -6 -6 -6 -5 -4 -4 -4 -4 -4 -4 -4 -4 -5 -5 -6 -5 -5
-1 -1 -1 -1 -1 -2 -2 -2 -2 -3 -3 -3 -3 -4 -4 -4 -5 -5 -6 -6 -6 -6 -6 -6 -6 -6 -6 -6 -6 -6 -5 -4 -4 -5 -5 -4 -4 -4 -5 -6 -6 -6 -5
-1 -1 -1 -1 -2 -2 -2 -2 -3 -3 -3 -3 -3 -4 -4 -4 -5 -5 -6 -6 -6 -6 -6 -6 -6 -6 -6 -6 -7 -7 -6 -5 -5 -5 -5 -5 -5 -5 -5 -5 -6 -5 -5
-2 -2 -1 -1 -2 -2 -3 -3 -3 -3 -3 -3 -3 -4 -4 -4 -4 -5 -6 -6 -6 -6 -6 -7 -7 -7 -7 -7 -7 -7 -7 -6 -6 -6 -6 -6 -5 -5 -5 -5 -5 -5 -5
-2 -2 -1 -1 -2 -2 -2 -3 -4 -3 -3 -3 -3 -4 -4 -4 -4 -5 -6 -6 -6 -6 -6 -7 -7 -7 -8 -8 -8 -8 -7 -7 -7 -7 -7 -6 -5 -5 -5 -5 -5 -5 -5